Find Starlink 34059

NORAD ID: 63872 Int'l Des: 2025-094 Owner: SPXS Country: US Constellation: starlink operational
LEOCIRCULAR

現在のビュー

3D地球を読み込み中...

About Starlink 34059

Starlink 34059 (NORAD 63872) is a starlink constellation satellite (v2 mini) launched May 10, 2025 by SPXS of US. It operates in LEO, CIRCULAR orbit with a mass of 575.00 kg.

Starlink 34059について

説明を読み込み中...

次回通過

Passes for default location (London). Set your location on the main map for personalized predictions.

高度履歴

Loading altitude history...

軌道要素

1 63872U 25094J 26195.22759845 .00003374 00000-0 29056-3 0 9993
2 63872 70.0007 275.5627 0003141 270.6322 89.4477 14.98316910 66156
Epoch: Jul 14, 2026 • Age: 4 hours

現在のステータス

高度 581.2 km
遠地点 / 近地点 N/A
速度 7.57 km/s
衛星直下点 49.98°N, 1°W
打ち上げ日 May 10, 2025
運用期間 1.1 years
タイプ internet

技術仕様

分類 Payload
質量 575.00 kg
乾燥質量 530.00 kg
総質量 575.00 kg
長さ 0.30 m
直径 4.10 m
スパン 29.00 m
形状 Box + pan
製造者 SPXS
バスタイプ Starlink V2MO
フェーズステータス In Orbit
所有者/国 SPXS/US

Most Searched